[[{"header":{"parameterUnit":"m.s-1","parameterCategory":2,"la1":30.2991,"la2":30.254,"lo1":-89.0895,"lo2":-89.0444,"dy":0.0017,"dx":0.0017,"nx":28,"ny":28,"refTime":"2024-08-02T03:00:00:Z","depth":"0","parameterNumber":2,"parameterNumberName":"U-component_of_CURRENTS"},"data":[0,0,0,0,0,0,0,0,0,0,0,0,0,0,0,0,0,0,0,0,0,0,0,0,0,0,0,0,0,0,0,0,0,0,0,0,0,0,0,0,0,0,0,0,0,0,0,0,0,0,0,0,0,0,0,0,0,0,-0.155,-0.155,0,-0.1526,-0.1525,-0.1525,-0.1458,-0.1457,-0.1456,-0.1455,-0.1434,-0.1434,-0.1435,0,0,0,0,0,0,0,0,0,0,0,0,0,-0.1519,-0.1519,-0.155,-0.155,-0.155,-0.1526,-0.1525,-0.1524,-0.1458,-0.1457,-0.1456,-0.1454,-0.1434,-0.1434,-0.1435,0,0,0,0,0,0,0,0,0,0,0,0,0,-0.1513,-0.1519,-0.155,-0.1518,-0.1515,-0.1526,-0.1525,-0.1524,-0.1458,-0.1457,-0.1455,-0.1454,-0.1434,-0.1434,-0.1435,-0.1468,0,0,-0.1436,-0.1437,0,0,0,0,0,0,0,0,-0.1513,-0.1513,-0.1522,-0.152,-0.1517,-0.1497,-0.1507,-0.1507,-0.1459,-0.1475,-0.1455,-0.1453,-0.146,-0.1458,-0.145,-0.1467,-0.1466,-0.1436,-0.1437,-0.1437,-0.1437,0,0,0,0,0,0,0,-0.1514,-0.1514,-0.1535,-0.1523,-0.1519,-0.1498,-0.1495,-0.1506,-0.1472,-0.1473,-0.1469,-0.1475,-0.1457,-0.145,-0.1449,-0.1466,-0.1436,-0.1437,-0.1437,-0.1438,-0.1509,-0.151,0,0,0,0,0,0,-0.1529,-0.1515,-0.1536,-0.1535,-0.1517,-0.15,-0.1497,-0.1501,-0.1472,-0.1467,-0.1476,-0.1472,-0.1449,-0.1449,-0.1448,-0.1472,-0.1437,-0.1438,-0.1438,-0.1507,-0.1509,-0.1511,0,0,0,0,0,0,-0.1529,-0.1531,-0.1537,-0.1528,-0.1528,-0.1503,-0.1508,-0.1502,-0.1489,-0.1475,-0.1469,-0.147,-0.1448,-0.1447,-0.1462,-0.1471,-0.1438,-0.1438,-0.1505,-0.1508,-0.151,-0.1528,0,0,0,0,0,0,-0.1528,-0.1531,-0.153,-0.1529,-0.1529,-0.1545,-0.151,-0.1503,-0.1498,-0.1491,-0.1469,-0.1465,-0.1447,-0.1462,-0.1463,-0.1471,-0.1439,-0.1503,-0.1507,-0.1509,-0.1526,-0.1531,-0.1536,0,0,0,0,0,-0.1527,-0.1539,-0.1531,-0.1533,-0.1532,-0.1546,-0.1544,-0.1518,-0.1499,-0.1499,-0.1488,-0.1466,-0.1481,-0.1464,-0.1465,-0.1473,-0.1502,-0.1506,-0.1509,-0.1524,-0.153,-0.1535,0,0,0,0,0,0,-0.1515,-0.1534,-0.1524,-0.1537,-0.1542,-0.1537,-0.1536,-0.1525,-0.1516,-0.1509,-0.1487,-0.1484,-0.1502,-0.1496,-0.1477,-0.1506,-0.1488,-0.1492,-0.1499,-0.1505,-0.151,-0.1491,-0.1439,0,0,0,0,0,-0.1518,-0.1535,-0.1543,-0.1553,-0.1558,-0.1549,-0.1548,-0.1538,-0.1536,-0.1528,-0.1514,-0.1511,-0.152,-0.1518,-0.1525,-0.1542,-0.1517,-0.1551,-0.1555,-0.1559,-0.1548,-0.1543,-0.1545,-0.1522,-0.1522,-0.1522,0,0,-0.1513,-0.153,-0.1534,-0.1552,-0.1551,-0.1558,-0.1543,-0.1553,-0.155,-0.1532,-0.1523,-0.1532,-0.1533,-0.1547,-0.1554,-0.1538,-0.1551,-0.1564,-0.1567,-0.1553,-0.1547,-0.1549,-0.155,-0.1525,-0.1524,-0.1524,0,0,-0.1529,-0.1531,-0.1552,-0.1558,-0.1573,-0.1569,-0.1576,-0.1577,-0.1565,-0.1575,-0.1564,-0.1579,-0.1583,-0.1583,-0.1585,-0.1628,-0.1583,-0.1633,-0.1631,-0.1627,-0.1628,-0.1628,-0.158,-0.1577,-0.1627,-0.1627,-0.1627,0,-0.1518,-0.1544,-0.1558,-0.1576,-0.1572,-0.1577,-0.1581,-0.1583,-0.1584,-0.1574,-0.1575,-0.1586,-0.1598,-0.1608,-0.1624,-0.1636,-0.1608,-0.1603,-0.163,-0.163,-0.163,-0.1581,-0.1577,-0.1628,-0.1628,-0.1628,-0.1628,0,-0.155,-0.1559,-0.1573,-0.1591,-0.159,-0.1601,-0.1603,-0.1601,-0.1593,-0.1587,-0.1597,-0.1619,-0.1614,-0.1636,-0.1642,-0.1654,-0.1624,-0.164,-0.1606,-0.1633,-0.158,-0.1575,-0.163,-0.1629,-0.1629,-0.1629,0,0,-0.1545,-0.1586,-0.1587,-0.158,-0.1594,-0.1592,-0.1594,-0.1588,-0.1568,-0.159,-0.1566,-0.1616,-0.1617,-0.1622,-0.1639,-0.1647,-0.1636,-0.1642,-0.1641,-0.1577,-0.1585,-0.145,-0.143,-0.165,-0.165,-0.165,-0.154,0,-0.1556,-0.1597,-0.1604,-0.1598,-0.1604,-0.159,-0.1579,-0.1571,-0.1564,-0.1547,-0.1576,-0.1573,-0.1615,-0.1612,-0.1632,-0.1641,-0.1626,-0.1661,-0.1583,-0.158,-0.1443,-0.1422,-0.1334,-0.1219,-0.1534,-0.1533,-0.1533,0,-0.1577,-0.1597,-0.1618,-0.1586,-0.1581,-0.1572,-0.153,-0.1522,-0.1508,-0.1502,-0.151,-0.1518,-0.1542,-0.1573,-0.1581,-0.1598,-0.1586,-0.1591,-0.1587,-0.1447,-0.1435,-0.1249,-0.1197,-0.1209,-0.1524,-0.1525,-0.1526,0,-0.1577,-0.1586,-0.1601,-0.1598,-0.1582,-0.156,-0.1534,-0.1509,-0.1481,-0.1471,-0.1444,-0.1474,-0.1469,-0.1492,-0.1496,-0.1537,-0.1475,-0.1532,-0.1388,-0.1377,-0.1278,-0.1258,-0.1211,-0.1512,-0.1512,-0.1513,-0.1513,0,-0.1588,-0.1578,-0.1601,-0.1604,-0.1565,-0.155,-0.1497,-0.1477,-0.1443,-0.1399,-0.142,-0.139,-0.1449,-0.1419,-0.1451,-0.1371,-0.143,-0.136,-0.1337,-0.1279,-0.1262,-0.1248,-0.1336,-0.1508,-0.1509,-0.151,-0.1511,0,-0.1575,-0.161,-0.1605,-0.1594,-0.1574,-0.1543,-0.1463,-0.1421,-0.1398,-0.1341,-0.1332,-0.1314,-0.1265,-0.1273,-0.1277,-0.1272,-0.1216,-0.1193,-0.109,-0.1056,-0.0942,-0.1036,-0.0968,-0.0934,-0.1026,-0.1022,-0.1019,0,-0.1567,-0.1586,-0.1591,-0.1574,-0.1563,-0.1508,-0.1457,-0.1411,-0.1363,-0.129,-0.1256,-0.1183,-0.112,-0.103,-0.0998,-0.0946,-0.1032,-0.0826,-0.09,-0.0886,-0.0977,-0.1049,-0.1034,-0.0777,-0.0772,-0.0768,-0.0765,0,-0.1523,-0.1552,-0.1554,-0.1536,-0.1496,-0.1433,-0.136,-0.1318,-0.1256,-0.1207,-0.1125,-0.1069,-0.0935,-0.0831,-0.0715,-0.069,-0.0817,-0.0734,-0.0771,-0.08,-0.083,-0.08,-0.0882,-0.0727,-0.0731,-0.0734,-0.0736,-0.0737,-0.1469,-0.1468,-0.1487,-0.1454,-0.1416,-0.1342,-0.1261,-0.1198,-0.1112,-0.0991,-0.1007,-0.0881,-0.0767,-0.0589,-0.0515,-0.0376,-0.0535,-0.0409,-0.0526,-0.0599,-0.056,-0.0517,-0.0309,-0.031,-0.0311,-0.0312,-0.0313,0,-0.1367,-0.1386,-0.1374,-0.1333,-0.1269,-0.1271,-0.1169,-0.1076,-0.0959,-0.0864,-0.0782,-0.0644,-0.0506,-0.0388,-0.026,-0.0227,-0.0232,-0.0238,-0.0369,-0.0366,-0.0347,-0.0328,-0.0052,-0.0052,-0.0052,-0.0052,-0.0052,-0.0052,-0.1307,-0.1287,-0.1297,-0.1185,-0.1154,-0.1025,-0.096,-0.0857,-0.0757,-0.057,-0.0452,-0.0363,-0.0317,-0.0416,-0.0312,-0.024,-0.0307,-0.0274,-0.0347,-0.0401,-0.0429,-0.0455,-0.0452,-0.0207,-0.0207,-0.0284,-0.0286,-0.0287]},{"header":{"parameterUnit":"m.s-1","parameterCategory":2,"la1":30.2991,"la2":30.254,"lo1":-89.0895,"lo2":-89.0444,"dy":0.0017,"dx":0.0017,"nx":28,"ny":28,"refTime":"2024-08-02T03:00:00:Z","depth":"0","parameterNumber":3,"parameterNumberName":"V-component_of_CURRENTS"},"data":[0,0,0,0,0,0,0,0,0,0,0,0,0,0,0,0,0,0,0,0,0,0,0,0,0,0,0,0,0,0,0,0,0,0,0,0,0,0,0,0,0,0,0,0,0,0,0,0,0,0,0,0,0,0,0,0,0,0,-0.028,-0.028,0,-0.0326,-0.0327,-0.0328,-0.0329,-0.0328,-0.0327,-0.0326,-0.0311,-0.0311,-0.0311,0,0,0,0,0,0,0,0,0,0,0,0,0,-0.0246,-0.0246,-0.028,-0.028,-0.0281,-0.0326,-0.0327,-0.0328,-0.0329,-0.0328,-0.0327,-0.0326,-0.031,-0.0311,-0.0311,0,0,0,0,0,0,0,0,0,0,0,0,0,-0.0275,-0.0247,-0.028,-0.0285,-0.0286,-0.0326,-0.0327,-0.0328,-0.0329,-0.0328,-0.0327,-0.0326,-0.031,-0.0311,-0.0311,-0.0338,0,0,-0.0313,-0.0313,0,0,0,0,0,0,0,0,-0.0274,-0.0277,-0.0284,-0.0285,-0.0286,-0.0319,-0.0309,-0.0328,-0.0329,-0.0315,-0.0326,-0.0325,-0.0307,-0.0308,-0.0323,-0.0337,-0.0337,-0.0313,-0.0313,-0.0313,-0.0313,0,0,0,0,0,0,0,-0.0272,-0.0275,-0.0301,-0.0284,-0.0285,-0.0303,-0.0306,-0.0314,-0.0318,-0.0316,-0.0316,-0.0318,-0.0307,-0.0323,-0.0322,-0.0336,-0.0313,-0.0313,-0.0313,-0.0314,-0.036,-0.0361,0,0,0,0,0,0,-0.026,-0.0273,-0.0299,-0.0302,-0.0274,-0.0304,-0.0308,-0.0311,-0.0319,-0.0319,-0.0319,-0.0318,-0.0323,-0.0322,-0.0322,-0.0356,-0.0313,-0.0314,-0.0314,-0.0359,-0.0361,-0.0362,0,0,0,0,0,0,-0.0259,-0.0262,-0.0297,-0.0287,-0.0292,-0.0306,-0.031,-0.0313,-0.0325,-0.0321,-0.032,-0.0327,-0.0322,-0.0321,-0.0339,-0.0355,-0.0314,-0.0314,-0.0358,-0.036,-0.0361,-0.0422,0,0,0,0,0,0,-0.0258,-0.0261,-0.0267,-0.0286,-0.0292,-0.0326,-0.0311,-0.0314,-0.0327,-0.0326,-0.0328,-0.0326,-0.0321,-0.0338,-0.0339,-0.0355,-0.0315,-0.0357,-0.0359,-0.0361,-0.0419,-0.0425,-0.0431,0,0,0,0,0,-0.0257,-0.027,-0.0267,-0.0271,-0.0297,-0.0326,-0.0332,-0.0339,-0.0328,-0.0344,-0.0347,-0.0326,-0.035,-0.034,-0.0341,-0.0357,-0.0356,-0.0358,-0.0361,-0.0416,-0.0424,-0.0431,0,0,0,0,0,0,-0.0265,-0.0272,-0.0269,-0.0285,-0.0304,-0.0326,-0.0338,-0.0343,-0.036,-0.0354,-0.0347,-0.0346,-0.0367,-0.0355,-0.0344,-0.0374,-0.0346,-0.0349,-0.0388,-0.0395,-0.0401,-0.041,-0.0315,0,0,0,0,0,-0.0267,-0.0274,-0.0289,-0.0303,-0.0308,-0.0323,-0.0336,-0.0343,-0.0357,-0.0363,-0.0367,-0.0368,-0.038,-0.0381,-0.0389,-0.0409,-0.0386,-0.0416,-0.0422,-0.0428,-0.0435,-0.0438,-0.0445,-0.0369,-0.0369,-0.0369,0,0,-0.0275,-0.0279,-0.0284,-0.0304,-0.0315,-0.0344,-0.0329,-0.035,-0.038,-0.0358,-0.0397,-0.0393,-0.0391,-0.0418,-0.0424,-0.0407,-0.0431,-0.043,-0.0435,-0.044,-0.0441,-0.0448,-0.0455,-0.037,-0.037,-0.037,0,0,-0.0293,-0.0294,-0.0305,-0.0325,-0.0342,-0.0358,-0.0364,-0.0388,-0.0402,-0.0439,-0.0429,-0.044,-0.0457,-0.0464,-0.0467,-0.0511,-0.0467,-0.0503,-0.0539,-0.0541,-0.0548,-0.0553,-0.0506,-0.0507,-0.0502,-0.0502,-0.0502,0,-0.0303,-0.0318,-0.0317,-0.034,-0.0359,-0.0365,-0.0395,-0.0422,-0.0453,-0.0466,-0.0456,-0.0488,-0.0484,-0.0515,-0.0532,-0.0526,-0.0501,-0.0512,-0.055,-0.0555,-0.0559,-0.051,-0.051,-0.0505,-0.0505,-0.0504,-0.0504,0,-0.0331,-0.035,-0.036,-0.0389,-0.0414,-0.044,-0.047,-0.0496,-0.0507,-0.0528,-0.056,-0.0564,-0.0575,-0.0578,-0.0571,-0.06,-0.0562,-0.0561,-0.0532,-0.0571,-0.0515,-0.0514,-0.051,-0.0508,-0.0508,-0.0507,0,0,-0.0341,-0.0372,-0.0377,-0.0393,-0.044,-0.046,-0.0513,-0.0555,-0.0574,-0.061,-0.0634,-0.0668,-0.0654,-0.0657,-0.0644,-0.0651,-0.0653,-0.0621,-0.062,-0.0574,-0.0621,-0.0596,-0.0591,-0.066,-0.0661,-0.0662,-0.0559,0,-0.0365,-0.0401,-0.042,-0.0471,-0.0493,-0.0521,-0.0566,-0.0605,-0.063,-0.0656,-0.067,-0.0685,-0.0689,-0.0678,-0.0697,-0.0667,-0.0658,-0.0679,-0.059,-0.0586,-0.0562,-0.0594,-0.0515,-0.0419,-0.0558,-0.0558,-0.0557,0,-0.0392,-0.041,-0.0452,-0.0493,-0.0504,-0.054,-0.0587,-0.0628,-0.0672,-0.0685,-0.0713,-0.0713,-0.0734,-0.0721,-0.071,-0.0721,-0.0678,-0.0653,-0.0648,-0.0608,-0.0562,-0.0409,-0.0412,-0.0202,-0.0555,-0.0555,-0.0556,0,-0.0389,-0.0436,-0.0462,-0.0483,-0.0534,-0.0555,-0.0583,-0.0632,-0.0656,-0.0692,-0.0696,-0.0731,-0.0718,-0.0716,-0.068,-0.0688,-0.0644,-0.0643,-0.0575,-0.0569,-0.0477,-0.0464,-0.0272,-0.0627,-0.0627,-0.0627,-0.0628,0,-0.0412,-0.0436,-0.0457,-0.0476,-0.0506,-0.0542,-0.0575,-0.0608,-0.0643,-0.0667,-0.0699,-0.0708,-0.0719,-0.07,-0.0676,-0.0623,-0.0639,-0.0584,-0.0557,-0.0493,-0.0483,-0.0277,-0.0213,-0.0623,-0.0624,-0.0625,-0.0626,0,-0.042,-0.0434,-0.0465,-0.0499,-0.0507,-0.0528,-0.0566,-0.0589,-0.0616,-0.0643,-0.0649,-0.0678,-0.0667,-0.0657,-0.0622,-0.0594,-0.0444,-0.0521,-0.0424,-0.039,-0.0161,-0.0106,0.0025,0.0126,-0.0436,-0.0435,-0.0434,0,-0.0432,-0.0442,-0.0469,-0.048,-0.0497,-0.0522,-0.0543,-0.0578,-0.0599,-0.0626,-0.0636,-0.0629,-0.0651,-0.0589,-0.0543,-0.0485,-0.0365,-0.0338,-0.0367,-0.0138,-0.0055,-0.0045,0.0032,-0.0239,-0.0237,-0.0235,-0.0233,0,-0.045,-0.0451,-0.0472,-0.0485,-0.0503,-0.0523,-0.0546,-0.0558,-0.0595,-0.0612,-0.0631,-0.0647,-0.0601,-0.0535,-0.0449,-0.0394,-0.0184,-0.0299,-0.0089,0.0082,0.0134,0.0242,-0.0278,-0.0216,-0.0218,-0.0219,-0.022,-0.0221,-0.046,-0.0474,-0.0483,-0.0501,-0.0511,-0.0521,-0.0532,-0.0555,-0.0579,-0.0607,-0.0631,-0.0657,-0.0487,-0.0394,-0.0304,0.0025,-0.0072,0.014,0.0185,0.0173,0.027,-0.0204,-0.0111,-0.0112,-0.0113,-0.0114,-0.0115,0,-0.0471,-0.048,-0.0497,-0.0511,-0.0516,-0.0519,-0.0533,-0.0536,-0.0555,-0.0598,-0.0629,-0.0524,-0.0303,-0.0086,0.0319,0.0517,0.0549,0.0642,0.0723,0.0773,0.036,0.0372,0.0607,0.0607,0.0607,0.0607,0.0606,0.0606,-0.0478,-0.0489,-0.05,-0.051,-0.0515,-0.0516,-0.0521,-0.0514,-0.053,-0.0518,-0.0514,-0.0524,-0.0112,0.0554,0.1038,0.1072,0.1262,0.12,0.1281,0.1068,0.1027,0.0987,0.102,0.1386,0.1387,0.1717,0.1721,0.1724]}],[{"header":{"parameterUnit":"m.s-1","parameterCategory":2,"la1":30.2991,"la2":30.254,"lo1":-89.0895,"lo2":-89.0444,"dy":0.0017,"dx":0.0017,"nx":28,"ny":28,"refTime":"2024-08-02T03:00:00:Z","depth":"2","parameterNumber":2,"parameterNumberName":"U-component_of_CURRENTS"},"data":[0,0,0,0,0,0,0,0,0,0,0,0,0,0,0,0,0,0,0,0,0,0,0,0,0,0,0,0,0,0,0,0,0,0,0,0,0,0,0,0,0,0,0,0,0,0,0,0,0,0,0,0,0,0,0,0,0,0,-0.2072,-0.2072,0,-0.2296,-0.2301,-0.2306,-0.2423,-0.2421,-0.2419,-0.2417,-0.2392,-0.2394,-0.2395,0,0,0,0,0,0,0,0,0,0,0,0,0,-0.2033,-0.2033,-0.2071,-0.2072,-0.2073,-0.2296,-0.2301,-0.2307,-0.2423,-0.2421,-0.2418,-0.2416,-0.2392,-0.2394,-0.2395,0,0,0,0,0,0,0,0,0,0,0,0,0,-0.2156,-0.2033,-0.2071,-0.2139,-0.2146,-0.2295,-0.2301,-0.2308,-0.2424,-0.2421,-0.2417,-0.2414,-0.2391,-0.2393,-0.2395,-0.2472,0,0,-0.2402,-0.2402,0,0,0,0,0,0,0,0,-0.2148,-0.216,-0.2129,-0.2134,-0.2142,-0.2306,-0.2278,-0.2342,-0.2425,-0.2345,-0.2417,-0.2413,-0.2326,-0.2334,-0.2423,-0.2471,-0.247,-0.2402,-0.2403,-0.2404,-0.2404,0,0,0,0,0,0,0,-0.2139,-0.2153,-0.2186,-0.2129,-0.2137,-0.2255,-0.227,-0.2295,-0.2366,-0.2352,-0.2354,-0.234,-0.2331,-0.2421,-0.2421,-0.247,-0.2402,-0.2403,-0.2405,-0.2406,-0.2533,-0.2535,0,0,0,0,0,0,-0.205,-0.2143,-0.2178,-0.219,-0.2109,-0.2256,-0.2273,-0.2277,-0.2371,-0.2377,-0.2343,-0.2344,-0.2419,-0.2419,-0.242,-0.2442,-0.2404,-0.2406,-0.2407,-0.2531,-0.2534,-0.2536,0,0,0,0,0,0,-0.2049,-0.2052,-0.2169,-0.2151,-0.2171,-0.2255,-0.2262,-0.2283,-0.236,-0.2362,-0.2368,-0.2391,-0.2416,-0.2417,-0.2447,-0.2442,-0.2407,-0.2408,-0.2528,-0.2532,-0.2535,-0.2528,0,0,0,0,0,0,-0.2047,-0.2051,-0.2071,-0.2145,-0.2167,-0.2229,-0.2263,-0.2289,-0.2344,-0.2349,-0.2406,-0.2402,-0.2414,-0.2444,-0.2449,-0.2444,-0.241,-0.2526,-0.253,-0.2534,-0.2526,-0.2531,-0.2535,0,0,0,0,0,-0.2046,-0.2053,-0.2072,-0.2076,-0.2177,-0.2227,-0.2254,-0.2321,-0.2348,-0.2384,-0.2432,-0.24,-0.2472,-0.2448,-0.2453,-0.2449,-0.2524,-0.2529,-0.2533,-0.2523,-0.253,-0.2535,0,0,0,0,0,0,-0.2054,-0.2065,-0.2087,-0.2102,-0.2145,-0.2236,-0.2262,-0.2324,-0.2412,-0.2407,-0.2437,-0.2439,-0.2463,-0.2472,-0.2445,-0.2504,-0.2489,-0.2496,-0.248,-0.2486,-0.2491,-0.2461,-0.2412,0,0,0,0,0,-0.2057,-0.2068,-0.2095,-0.2115,-0.211,-0.2199,-0.2241,-0.2287,-0.2343,-0.2384,-0.2425,-0.2465,-0.25,-0.2501,-0.2537,-0.257,-0.2534,-0.2572,-0.2576,-0.258,-0.2564,-0.2563,-0.2565,-0.2552,-0.2552,-0.2552,0,0,-0.2059,-0.2071,-0.2078,-0.2118,-0.2152,-0.2182,-0.2222,-0.2259,-0.2333,-0.2357,-0.2462,-0.2481,-0.2517,-0.256,-0.2569,-0.2554,-0.2556,-0.2586,-0.2588,-0.257,-0.2568,-0.2569,-0.2569,-0.2555,-0.2555,-0.2554,0,0,-0.2039,-0.207,-0.2054,-0.2085,-0.2109,-0.2176,-0.2173,-0.2257,-0.2333,-0.2417,-0.246,-0.249,-0.2547,-0.2589,-0.2609,-0.2667,-0.2588,-0.2659,-0.2645,-0.2646,-0.2645,-0.2645,-0.2545,-0.2535,-0.2653,-0.2653,-0.2653,0,-0.2044,-0.2043,-0.2066,-0.2058,-0.2091,-0.2157,-0.2174,-0.2274,-0.2383,-0.2437,-0.2424,-0.2543,-0.2569,-0.263,-0.2645,-0.2673,-0.2615,-0.2613,-0.2646,-0.2645,-0.2645,-0.2543,-0.2533,-0.2653,-0.2653,-0.2653,-0.2653,0,-0.2003,-0.2021,-0.2003,-0.2032,-0.2084,-0.2104,-0.2193,-0.2289,-0.2366,-0.2439,-0.2512,-0.2566,-0.261,-0.2636,-0.265,-0.2671,-0.2607,-0.2653,-0.2616,-0.2644,-0.2536,-0.2525,-0.2654,-0.2653,-0.2653,-0.2653,0,0,-0.1969,-0.1975,-0.1973,-0.201,-0.2077,-0.2127,-0.2233,-0.2348,-0.241,-0.2497,-0.254,-0.2635,-0.2617,-0.2642,-0.2664,-0.2669,-0.2607,-0.2637,-0.2637,-0.2507,-0.2504,-0.2354,-0.2326,-0.264,-0.2639,-0.2639,-0.2407,0,-0.1938,-0.1924,-0.1959,-0.2024,-0.2034,-0.2151,-0.2254,-0.2375,-0.2449,-0.2505,-0.256,-0.2578,-0.2634,-0.2603,-0.2631,-0.2619,-0.2585,-0.2658,-0.2523,-0.2517,-0.2357,-0.2314,-0.2212,-0.1989,-0.2396,-0.2395,-0.2393,0,-0.1888,-0.1906,-0.1919,-0.2045,-0.2058,-0.2134,-0.2303,-0.2384,-0.2472,-0.2496,-0.2509,-0.2514,-0.2527,-0.2549,-0.2537,-0.2564,-0.2518,-0.2508,-0.25,-0.2355,-0.2348,-0.2043,-0.1954,-0.2375,-0.2376,-0.2377,-0.2379,0,-0.1853,-0.1904,-0.1934,-0.1964,-0.2088,-0.2175,-0.226,-0.2378,-0.2417,-0.2428,-0.2394,-0.2433,-0.238,-0.24,-0.2394,-0.2432,-0.2333,-0.2395,-0.2212,-0.2197,-0.2081,-0.2057,-0.2356,-0.2356,-0.2356,-0.2357,-0.2358,0,-0.1812,-0.1846,-0.193,-0.1947,-0.2055,-0.2141,-0.2214,-0.2307,-0.2318,-0.2318,-0.2341,-0.234,-0.2335,-0.2302,-0.2323,-0.2204,-0.2277,-0.2163,-0.2133,-0.207,-0.2049,-0.239,-0.2398,-0.2348,-0.235,-0.2352,-0.2353,0,-0.174,-0.1775,-0.1829,-0.196,-0.2021,-0.2082,-0.2165,-0.2192,-0.2209,-0.2184,-0.2156,-0.2186,-0.2142,-0.2127,-0.2094,-0.2055,-0.2008,-0.1951,-0.1815,-0.1773,-0.1868,-0.1879,-0.1676,-0.1669,-0.1663,-0.1658,-0.1654,0,-0.1697,-0.1695,-0.1813,-0.1853,-0.1914,-0.1996,-0.2054,-0.212,-0.2125,-0.2148,-0.2138,-0.2056,-0.2056,-0.1898,-0.179,-0.1665,-0.1827,-0.146,-0.1549,-0.1809,-0.1801,-0.1821,-0.1839,-0.1366,-0.1359,-0.1354,-0.135,0,-0.1618,-0.1639,-0.1675,-0.1744,-0.1825,-0.1887,-0.197,-0.1965,-0.2027,-0.2003,-0.2045,-0.2036,-0.1877,-0.1696,-0.1441,-0.14,-0.1472,-0.1344,-0.1661,-0.1563,-0.1501,-0.1499,-0.153,-0.1305,-0.1309,-0.1313,-0.1315,-0.1317,-0.1552,-0.1546,-0.1572,-0.1637,-0.171,-0.1771,-0.1749,-0.1821,-0.1804,-0.1753,-0.1896,-0.1806,-0.1711,-0.1291,-0.1175,-0.101,-0.1126,-0.1073,-0.1096,-0.1123,-0.1138,-0.1071,-0.0789,-0.0791,-0.0792,-0.0793,-0.0794,0,-0.1463,-0.1442,-0.1473,-0.151,-0.151,-0.162,-0.1678,-0.1614,-0.1552,-0.16,-0.1568,-0.1356,-0.1175,-0.1108,-0.0791,-0.0659,-0.0726,-0.0618,-0.076,-0.0802,-0.084,-0.0851,-0.042,-0.0419,-0.0418,-0.0417,0,0,-0.141,-0.1368,-0.1368,-0.1313,-0.1331,-0.1293,-0.1297,-0.1246,-0.125,-0.118,-0.1126,-0.1156,-0.115,-0.0832,-0.0691,-0.0544,-0.0694,-0.0495,-0.0797,-0.1017,-0.1056,-0.1091,-0.115,0,0,0,0,0]},{"header":{"parameterUnit":"m.s-1","parameterCategory":2,"la1":30.2991,"la2":30.254,"lo1":-89.0895,"lo2":-89.0444,"dy":0.0017,"dx":0.0017,"nx":28,"ny":28,"refTime":"2024-08-02T03:00:00:Z","depth":"2","parameterNumber":3,"parameterNumberName":"V-component_of_CURRENTS"},"data":[0,0,0,0,0,0,0,0,0,0,0,0,0,0,0,0,0,0,0,0,0,0,0,0,0,0,0,0,0,0,0,0,0,0,0,0,0,0,0,0,0,0,0,0,0,0,0,0,0,0,0,0,0,0,0,0,0,0,0.003,0.0031,0,0.0087,0.0088,0.0089,0.0113,0.0112,0.0112,0.0111,0.0147,0.0148,0.0149,0,0,0,0,0,0,0,0,0,0,0,0,0,0.0,0.0001,0.003,0.0031,0.0031,0.0087,0.0088,0.0089,0.0113,0.0112,0.0112,0.0111,0.0146,0.0148,0.0149,0,0,0,0,0,0,0,0,0,0,0,0,0,0.0034,0.0001,0.003,0.0047,0.0049,0.0087,0.0088,0.009,0.0113,0.0112,0.0112,0.0111,0.0146,0.0148,0.015,0.0176,0,0,0.0156,0.0157,0,0,0,0,0,0,0,0,0.0032,0.0036,0.0044,0.0046,0.0048,0.0089,0.0091,0.0116,0.0113,0.0092,0.0111,0.0111,0.0123,0.0127,0.0145,0.0178,0.0179,0.0156,0.0157,0.0158,0.0159,0,0,0,0,0,0,0,0.003,0.0034,0.0057,0.0044,0.0047,0.0071,0.0075,0.0096,0.0113,0.0094,0.0095,0.0096,0.0125,0.0143,0.0146,0.018,0.0156,0.0158,0.0159,0.016,0.0228,0.0228,0,0,0,0,0,0,0.0013,0.0031,0.0055,0.0058,0.0034,0.0072,0.0076,0.0079,0.0114,0.0117,0.0096,0.0097,0.014,0.0143,0.0147,0.0124,0.0158,0.016,0.0161,0.0227,0.0228,0.0228,0,0,0,0,0,0,0.0013,0.0015,0.0052,0.0043,0.0049,0.0072,0.0076,0.0081,0.0079,0.0115,0.0119,0.0086,0.014,0.0144,0.0148,0.0128,0.0161,0.0163,0.0226,0.0227,0.0228,0.0114,0,0,0,0,0,0,0.0012,0.0014,0.0009,0.0042,0.0049,0.0049,0.0076,0.0082,0.008,0.008,0.0108,0.0112,0.0139,0.0145,0.015,0.0131,0.0164,0.0226,0.0227,0.0228,0.0117,0.0111,0.0106,0,0,0,0,0,0.001,0.0001,0.0009,0.0011,0.0041,0.0047,0.0053,0.0071,0.0079,0.0068,0.0093,0.011,0.0157,0.0147,0.0153,0.0133,0.0225,0.0226,0.0228,0.012,0.0112,0.0106,0,0,0,0,0,0,-0.0017,0.0003,0.0012,0.0009,0.0015,0.0049,0.0047,0.0057,0.0071,0.0073,0.0106,0.0112,0.0116,0.0148,0.0136,0.0164,0.0198,0.0201,0.0114,0.0108,0.0102,0.0087,0.0166,0,0,0,0,0,-0.0025,-0.003,-0.0008,-0.0017,-0.001,0.0015,0.002,0.0029,0.0047,0.0053,0.0065,0.0098,0.0133,0.0133,0.0169,0.0169,0.019,0.0169,0.0163,0.0158,0.0154,0.0207,0.0204,0.0233,0.0233,0.0233,0,0,-0.0042,-0.0031,-0.0035,-0.0024,-0.0009,-0.0012,0.0016,0.0014,0.001,0.0055,0.0043,0.0075,0.0133,0.014,0.0145,0.0154,0.0148,0.0159,0.0154,0.0153,0.0207,0.0204,0.0202,0.0233,0.0233,0.0233,0,0,-0.0074,-0.0063,-0.0073,-0.0071,-0.0061,-0.0044,-0.0054,-0.0037,-0.003,-0.0039,0.001,0.0039,0.005,0.0106,0.0135,0.0127,0.0124,0.0117,0.0058,0.0107,0.0105,0.0103,0.0056,0.0052,0.0103,0.0103,0.0103,0,-0.0096,-0.0103,-0.008,-0.0088,-0.0094,-0.0066,-0.0084,-0.0065,-0.0058,-0.0055,-0.0061,-0.0001,0.0051,0.0093,0.0083,0.0114,0.0091,0.0068,0.0096,0.0095,0.0095,0.0049,0.0045,0.0098,0.0098,0.0099,0.0099,0,-0.0127,-0.014,-0.0148,-0.0148,-0.0151,-0.0166,-0.0142,-0.015,-0.0149,-0.0134,-0.0118,-0.0054,-0.0023,0.0001,0.0029,0.0054,0.0015,0.0085,0.01,0.0084,0.0037,0.0035,0.009,0.0092,0.0094,0.0095,0,0,-0.0167,-0.017,-0.0174,-0.0192,-0.0188,-0.0196,-0.0201,-0.0198,-0.0207,-0.0197,-0.0219,-0.0133,-0.0119,-0.0081,-0.0034,0.0003,-0.0027,0.0008,0.0014,-0.0063,-0.0024,0.0059,0.0064,0.0018,0.0019,0.002,-0.0085,0,-0.0205,-0.0236,-0.0225,-0.027,-0.0289,-0.0272,-0.0282,-0.0274,-0.0271,-0.0288,-0.0214,-0.0201,-0.0144,-0.0147,-0.0104,-0.0042,-0.0029,-0.0011,0.0027,0.0027,0.0085,0.007,0.0193,0.0123,-0.0086,-0.0087,-0.0087,0,-0.0238,-0.0261,-0.0302,-0.0337,-0.0342,-0.036,-0.0382,-0.0387,-0.0374,-0.0378,-0.036,-0.0324,-0.0283,-0.0217,-0.0146,-0.0164,-0.011,-0.0056,-0.0057,0.0069,0.0111,0.0124,0.0127,-0.009,-0.009,-0.0089,-0.0089,0,-0.028,-0.0317,-0.0356,-0.0368,-0.0394,-0.0412,-0.0423,-0.0416,-0.0419,-0.0435,-0.0451,-0.0414,-0.0391,-0.0323,-0.022,-0.021,-0.0153,-0.0102,0.0019,0.002,0.0166,0.0182,-0.0026,-0.0025,-0.0025,-0.0025,-0.0025,0,-0.0324,-0.0359,-0.038,-0.0405,-0.0455,-0.0458,-0.0495,-0.0502,-0.0511,-0.0517,-0.0498,-0.0488,-0.0411,-0.0365,-0.0286,-0.0161,-0.0197,-0.0003,0.0023,0.0124,0.0137,0.0014,0.002,-0.0029,-0.0028,-0.0027,-0.0027,0,-0.0357,-0.0369,-0.0424,-0.0464,-0.0474,-0.0511,-0.0531,-0.055,-0.0558,-0.0575,-0.0584,-0.056,-0.0503,-0.0425,-0.0318,-0.0213,-0.0109,-0.004,0.002,0.0061,0.0017,0.0018,0.0037,0.004,0.0042,0.0044,0.0045,0,-0.038,-0.0403,-0.046,-0.0486,-0.0503,-0.0543,-0.056,-0.0576,-0.0588,-0.0591,-0.0601,-0.0564,-0.0485,-0.0347,-0.0142,-0.0009,-0.0069,0.0139,0.0254,0.0011,0.0034,0.0032,0.0031,0.0344,0.0348,0.0351,0.0353,0,-0.0419,-0.0429,-0.0467,-0.0521,-0.0553,-0.0586,-0.061,-0.0631,-0.064,-0.0632,-0.0595,-0.0527,-0.0324,-0.0087,0.0092,0.0187,0.0121,0.0211,-0.0033,0.0338,0.0303,0.0324,0.0312,0.0382,0.0379,0.0377,0.0375,0.0374,-0.0441,-0.0469,-0.0506,-0.0551,-0.0589,-0.0625,-0.0651,-0.0665,-0.0675,-0.0637,-0.0563,-0.037,-0.0175,0.0211,0.0298,0.0403,0.0411,0.0429,0.0418,0.0404,0.0488,0.0464,0.058,0.0578,0.0577,0.0575,0.0574,0,-0.0466,-0.0477,-0.0525,-0.0595,-0.0632,-0.0637,-0.0674,-0.0681,-0.0687,-0.0546,-0.0446,-0.015,0.0154,0.0307,0.0612,0.0719,0.0694,0.0627,0.0605,0.0584,0.0563,0.0651,0.0786,0.0785,0.0784,0.0783,0,0,-0.0478,-0.0506,-0.0523,-0.0599,-0.0639,-0.0669,-0.0679,-0.0681,-0.0578,-0.0469,-0.0247,0.0011,0.0296,0.0471,0.0598,0.0723,0.0589,0.07,0.0556,0.0503,0.0478,0.0515,0.0636,0,0,0,0,0]}],[{"header":{"parameterUnit":"m.s-1","parameterCategory":2,"la1":30.2991,"la2":30.254,"lo1":-89.0895,"lo2":-89.0444,"dy":0.0017,"dx":0.0017,"nx":28,"ny":28,"refTime":"2024-08-02T03:00:00:Z","depth":"4","parameterNumber":2,"parameterNumberName":"U-component_of_CURRENTS"},"data":[0,0,0,0,0,0,0,0,0,0,0,0,0,0,0,0,0,0,0,0,0,0,0,0,0,0,0,0,0,0,0,0,0,0,0,0,0,0,0,0,0,0,0,0,0,0,0,0,0,0,0,0,0,0,0,0,0,0,-0.1363,-0.1364,0,-0.1445,-0.1446,-0.1447,-0.1479,-0.1479,-0.1479,-0.1479,-0.1521,-0.1522,-0.1523,0,0,0,0,0,0,0,0,0,0,0,0,0,-0.1245,-0.1247,-0.1362,-0.1364,-0.1365,-0.1445,-0.1446,-0.1447,-0.1479,-0.1479,-0.1479,-0.1479,-0.152,-0.1522,-0.1523,0,0,0,0,0,0,0,0,0,0,0,0,0,-0.1306,-0.1247,-0.1362,-0.1393,-0.1396,-0.1445,-0.1446,-0.1447,-0.1479,-0.1479,-0.1479,-0.1479,-0.152,-0.1522,-0.1523,-0.1533,0,0,-0.1528,-0.1529,0,0,0,0,0,0,0,0,-0.1302,-0.131,-0.1387,-0.1391,-0.1395,-0.1454,-0.1421,-0.1475,-0.1479,-0.1444,-0.1479,-0.1479,-0.1497,-0.15,-0.1512,-0.1535,-0.1536,-0.1528,-0.1529,-0.153,-0.1531,0,0,0,0,0,0,0,-0.1298,-0.1307,-0.1392,-0.1388,-0.1393,-0.1407,-0.1415,-0.1431,-0.1466,-0.1447,-0.145,-0.1464,-0.1498,-0.1511,-0.1513,-0.1537,-0.1528,-0.153,-0.1531,-0.1532,-0.1613,-0.1614,0,0,0,0,0,0,-0.1293,-0.1303,-0.139,-0.1395,-0.1351,-0.1409,-0.1418,-0.1433,-0.1467,-0.1474,-0.1464,-0.1466,-0.1508,-0.1511,-0.1515,-0.1564,-0.153,-0.1532,-0.1533,-0.1612,-0.1613,-0.1614,0,0,0,0,0,0,-0.1291,-0.13,-0.1386,-0.1353,-0.1365,-0.1411,-0.1427,-0.1435,-0.1469,-0.1481,-0.1486,-0.1494,-0.1508,-0.1513,-0.1542,-0.1565,-0.1532,-0.1534,-0.161,-0.1612,-0.1614,-0.164,0,0,0,0,0,0,-0.1287,-0.1299,-0.1316,-0.1353,-0.1367,-0.1431,-0.1428,-0.1436,-0.1478,-0.1481,-0.1508,-0.1511,-0.1508,-0.154,-0.1544,-0.1566,-0.1535,-0.1609,-0.1611,-0.1613,-0.1637,-0.1642,-0.1646,0,0,0,0,0,-0.1282,-0.1302,-0.1316,-0.1327,-0.1386,-0.1433,-0.1442,-0.1472,-0.1479,-0.1501,-0.1514,-0.1511,-0.1557,-0.1542,-0.1546,-0.157,-0.1608,-0.1611,-0.1613,-0.1635,-0.1641,-0.1646,0,0,0,0,0,0,-0.1265,-0.1309,-0.1325,-0.1359,-0.1401,-0.1439,-0.1467,-0.1486,-0.1516,-0.1522,-0.1525,-0.1529,-0.1561,-0.1566,-0.155,-0.1601,-0.1583,-0.1587,-0.1598,-0.1604,-0.1608,-0.1611,-0.1537,0,0,0,0,0,-0.1269,-0.1292,-0.134,-0.1369,-0.1394,-0.1435,-0.1461,-0.1485,-0.1513,-0.1528,-0.1545,-0.1562,-0.1574,-0.1589,-0.1601,-0.1632,-0.1622,-0.1652,-0.1656,-0.166,-0.1667,-0.1682,-0.1688,-0.1623,-0.1623,-0.1623,0,0,-0.1272,-0.1298,-0.1314,-0.1367,-0.1403,-0.1443,-0.1451,-0.1501,-0.153,-0.1526,-0.1572,-0.1578,-0.1585,-0.1614,-0.163,-0.1623,-0.1667,-0.1663,-0.1666,-0.1671,-0.1685,-0.1691,-0.1697,-0.1625,-0.1625,-0.1624,0,0,-0.1283,-0.1316,-0.134,-0.1379,-0.1438,-0.1464,-0.1483,-0.1537,-0.1559,-0.1602,-0.1599,-0.1626,-0.1653,-0.1663,-0.1668,-0.1709,-0.1687,-0.1712,-0.1742,-0.1756,-0.1761,-0.1766,-0.1731,-0.1733,-0.1718,-0.1718,-0.1718,0,-0.1287,-0.1324,-0.1357,-0.1395,-0.1431,-0.1475,-0.1516,-0.1547,-0.16,-0.1617,-0.1622,-0.1667,-0.1678,-0.1704,-0.1716,-0.172,-0.1704,-0.1718,-0.1761,-0.1766,-0.177,-0.1734,-0.1735,-0.172,-0.172,-0.1719,-0.1719,0,-0.1313,-0.1355,-0.1378,-0.1434,-0.1476,-0.1522,-0.157,-0.1607,-0.1638,-0.1662,-0.1705,-0.1722,-0.1745,-0.1756,-0.1749,-0.1785,-0.1752,-0.176,-0.1744,-0.1778,-0.1737,-0.1738,-0.1722,-0.1721,-0.1721,-0.1721,0,0,-0.1289,-0.1377,-0.1389,-0.1423,-0.1503,-0.1536,-0.1589,-0.1643,-0.1672,-0.172,-0.1752,-0.1787,-0.1795,-0.1802,-0.1802,-0.1824,-0.1832,-0.1806,-0.1806,-0.1764,-0.1824,-0.1671,-0.1657,-0.1844,-0.1845,-0.1846,-0.1772,0,-0.1304,-0.1369,-0.1414,-0.1483,-0.1523,-0.1581,-0.1624,-0.1676,-0.1714,-0.1753,-0.178,-0.1811,-0.181,-0.1823,-0.1844,-0.184,-0.184,-0.1849,-0.1805,-0.1803,-0.1658,-0.1656,-0.1849,-0.1772,-0.1773,-0.1773,-0.1773,0,-0.1311,-0.1355,-0.142,-0.1504,-0.1529,-0.1576,-0.1648,-0.1693,-0.1751,-0.1779,-0.1815,-0.1831,-0.1863,-0.1863,-0.187,-0.1871,-0.1849,-0.1844,-0.1841,-0.1694,-0.1652,-0.1741,-0.1773,-0.1773,-0.1773,-0.1773,-0.1773,0,-0.126,-0.1358,-0.1405,-0.1438,-0.1537,-0.1577,-0.163,-0.17,-0.1732,-0.1794,-0.1812,-0.1854,-0.1861,-0.1873,-0.1852,-0.1864,-0.1841,-0.1856,-0.1691,-0.1679,-0.1828,-0.1824,-0.1857,-0.1857,-0.1858,-0.1858,-0.1858,0,-0.1241,-0.1288,-0.1389,-0.1415,-0.1473,-0.1555,-0.1614,-0.1667,-0.1735,-0.1756,-0.1816,-0.1816,-0.1867,-0.1854,-0.1848,-0.1747,-0.1831,-0.1683,-0.1654,-0.1836,-0.1834,-0.1826,-0.1823,-0.1855,-0.1856,-0.1856,-0.1857,0,-0.1182,-0.1249,-0.1306,-0.1412,-0.145,-0.1488,-0.1598,-0.1628,-0.1703,-0.1729,-0.1745,-0.1783,-0.1755,-0.177,-0.1766,-0.1703,-0.1659,-0.1602,-0.1756,-0.1739,-0.1485,-0.1485,-0.1409,-0.1403,-0.1398,-0.1394,-0.1391,0,-0.1155,-0.118,-0.1284,-0.1308,-0.1362,-0.1439,-0.1484,-0.1593,-0.1618,-0.1683,-0.1672,-0.1672,-0.1678,-0.1534,-0.1576,-0.1521,-0.151,-0.146,-0.151,-0.1462,-0.1442,-0.1449,-0.1456,-0.1383,-0.1381,-0.138,-0.1379,0,-0.1103,-0.1144,-0.1183,-0.123,-0.1281,-0.1335,-0.1408,-0.1419,-0.1519,-0.1599,-0.1547,-0.1511,-0.1455,-0.1429,-0.1376,-0.1355,-0.1489,-0.1408,-0.1419,-0.1466,-0.1429,-0.1415,-0.1428,-0.1361,-0.1364,-0.1366,-0.1367,0,-0.1052,-0.1061,-0.1105,-0.1134,-0.1189,-0.1203,-0.1265,-0.129,-0.1331,-0.142,-0.1391,-0.1396,-0.1436,-0.1338,-0.1305,-0.1251,-0.1241,-0.1206,-0.1228,-0.1248,-0.1228,-0.1159,-0.0971,0,0,0,0,0,-0.0998,-0.0994,-0.101,-0.1028,-0.1071,-0.1106,-0.1197,-0.1259,-0.1363,-0.1286,-0.1339,-0.1288,-0.1208,-0.1212,-0.112,-0.1223,-0.1246,-0.1109,-0.122,-0.1265,-0.1285,-0.1277,0,0,0,0,0,0,-0.0957,-0.0975,-0.0974,-0.0928,-0.092,-0.0962,-0.1016,-0.1089,-0.1064,-0.1165,-0.1132,-0.119,-0.114,-0.1234,-0.1086,-0.1085,-0.1122,-0.1123,-0.1119,-0.1254,-0.1272,-0.1288,-0.1287,0,0,0,0,0]},{"header":{"parameterUnit":"m.s-1","parameterCategory":2,"la1":30.2991,"la2":30.254,"lo1":-89.0895,"lo2":-89.0444,"dy":0.0017,"dx":0.0017,"nx":28,"ny":28,"refTime":"2024-08-02T03:00:00:Z","depth":"4","parameterNumber":3,"parameterNumberName":"V-component_of_CURRENTS"},"data":[0,0,0,0,0,0,0,0,0,0,0,0,0,0,0,0,0,0,0,0,0,0,0,0,0,0,0,0,0,0,0,0,0,0,0,0,0,0,0,0,0,0,0,0,0,0,0,0,0,0,0,0,0,0,0,0,0,0,0.0026,0.0026,0,0.0041,0.0041,0.0041,0.0067,0.0067,0.0068,0.0068,0.012,0.0121,0.0122,0,0,0,0,0,0,0,0,0,0,0,0,0,0.0031,0.003,0.0026,0.0026,0.0027,0.0041,0.0041,0.0041,0.0067,0.0067,0.0068,0.0068,0.012,0.0121,0.0122,0,0,0,0,0,0,0,0,0,0,0,0,0,0.0036,0.003,0.0026,0.0041,0.0042,0.0041,0.0041,0.0041,0.0067,0.0067,0.0068,0.0068,0.0119,0.0121,0.0122,0.0118,0,0,0.0127,0.0127,0,0,0,0,0,0,0,0,0.0035,0.0036,0.0038,0.004,0.0041,0.0052,0.0062,0.0069,0.0066,0.0058,0.0068,0.0069,0.01,0.0103,0.0105,0.0121,0.0123,0.0127,0.0128,0.0128,0.0129,0,0,0,0,0,0,0,0.0035,0.0035,0.0033,0.0038,0.004,0.005,0.0051,0.0063,0.0076,0.0059,0.006,0.0061,0.0101,0.0103,0.0106,0.0124,0.0127,0.0128,0.0129,0.013,0.0127,0.0126,0,0,0,0,0,0,0.0031,0.0035,0.0032,0.0033,0.0039,0.0049,0.0051,0.0048,0.0075,0.0079,0.006,0.0062,0.01,0.0104,0.0108,0.0096,0.0128,0.013,0.0131,0.0128,0.0127,0.0126,0,0,0,0,0,0,0.0031,0.003,0.0031,0.0034,0.0035,0.0048,0.0045,0.0048,0.0053,0.0076,0.0081,0.0062,0.0101,0.0106,0.0107,0.0099,0.013,0.0132,0.0129,0.0128,0.0127,0.0078,0,0,0,0,0,0,0.0031,0.003,0.0029,0.0034,0.0035,0.0024,0.0045,0.0048,0.0052,0.0054,0.0079,0.0085,0.0102,0.0104,0.0108,0.0102,0.0133,0.013,0.0129,0.0127,0.0081,0.0075,0.0071,0,0,0,0,0,0.0031,0.0021,0.0029,0.0028,0.0031,0.0023,0.0024,0.0036,0.0051,0.0045,0.0058,0.0084,0.0096,0.0104,0.0109,0.0103,0.0131,0.0129,0.0127,0.0083,0.0076,0.0071,0,0,0,0,0,0,0.0024,0.0023,0.0031,0.0023,0.0021,0.0027,0.0024,0.0034,0.004,0.0046,0.0071,0.0076,0.0071,0.0091,0.01,0.0096,0.0119,0.0117,0.0084,0.0078,0.0072,0.0074,0.0134,0,0,0,0,0,0.0021,0.0014,0.0015,0.0009,0.0007,0.0017,0.0017,0.0023,0.0029,0.0033,0.0048,0.0062,0.0065,0.0075,0.0079,0.0081,0.012,0.0079,0.0074,0.007,0.0073,0.0129,0.0129,0.0119,0.0119,0.0119,0,0,0.0018,0.0016,0.0014,0.0007,0.001,-0.0006,0.0018,0.0014,0.0003,0.0037,0.0029,0.0041,0.0058,0.0052,0.0053,0.0071,0.009,0.0067,0.0063,0.0069,0.0127,0.0128,0.0129,0.0118,0.0118,0.0118,0,0,-0.0003,0.0005,-0.0012,-0.0018,-0.0022,-0.0019,-0.0022,-0.002,-0.0016,-0.0024,-0.0007,0.0003,0.0009,0.0022,0.0029,-0.0,0.0053,-0.0002,-0.0016,0.0037,0.0039,0.0041,0.0082,0.0088,0.0004,0.0004,0.0004,0,-0.0006,-0.0029,-0.0018,-0.004,-0.0049,-0.0028,-0.0053,-0.0049,-0.0047,-0.0049,-0.0034,-0.0022,-0.0003,-0.0005,-0.0016,-0.001,0.0025,0.0007,0.0033,0.0036,0.0039,0.008,0.0088,0.0002,0.0002,0.0002,0.0003,0,-0.0044,-0.0062,-0.0074,-0.0094,-0.0101,-0.0118,-0.0115,-0.0118,-0.0107,-0.0101,-0.0101,-0.0073,-0.0062,-0.0057,-0.0044,-0.0023,-0.0005,0.0014,0.0053,0.0038,0.0081,0.009,-0.0002,-0.0001,-0.0,0.0,0,0,-0.0058,-0.0094,-0.0099,-0.0123,-0.0133,-0.0147,-0.016,-0.0173,-0.0184,-0.0163,-0.0174,-0.0151,-0.0123,-0.0113,-0.0088,-0.0037,0.0013,-0.0003,0.0001,0.0044,0.0126,0.0146,0.0159,0.0042,0.0043,0.0044,0.0144,0,-0.0093,-0.015,-0.0154,-0.0204,-0.0233,-0.0221,-0.0241,-0.0243,-0.0234,-0.024,-0.0195,-0.0194,-0.0149,-0.0141,-0.0085,-0.0026,0.0036,-0.0016,0.0129,0.0133,0.016,0.0169,0.0049,0.0151,0.0154,0.0155,0.0156,0,-0.0134,-0.0169,-0.0227,-0.0271,-0.0281,-0.0302,-0.0324,-0.0336,-0.0328,-0.0319,-0.029,-0.0261,-0.0208,-0.0158,-0.0026,-0.0061,0.0033,0.0098,0.0104,0.0149,0.0171,0.0173,0.0173,0.0172,0.0171,0.0169,0.0168,0,-0.0164,-0.022,-0.027,-0.0286,-0.0327,-0.0346,-0.0358,-0.036,-0.0376,-0.0362,-0.0368,-0.0299,-0.0272,-0.0143,-0.0015,-0.0013,0.0138,0.0159,0.0272,0.0274,0.0248,0.0245,0.0281,0.0281,0.0281,0.028,0.028,0,-0.0206,-0.0247,-0.029,-0.0321,-0.0378,-0.0383,-0.0427,-0.0429,-0.0434,-0.0455,-0.0404,-0.0395,-0.0262,-0.017,-0.0031,0.014,0.0136,0.0276,0.0307,0.0221,0.0214,0.0254,0.0249,0.0284,0.0283,0.0283,0.0282,0,-0.0233,-0.0263,-0.0327,-0.0379,-0.0398,-0.0434,-0.0475,-0.0502,-0.0497,-0.0521,-0.0517,-0.0464,-0.0333,-0.0193,0.0001,0.0111,0.0277,0.0347,0.0229,0.025,0.0382,0.0374,0.0485,0.0487,0.0488,0.049,0.0491,0,-0.0254,-0.0291,-0.0368,-0.0409,-0.0436,-0.0486,-0.0522,-0.0532,-0.0551,-0.0552,-0.0561,-0.0471,-0.0409,-0.0134,0.0024,0.0284,0.0331,0.0408,0.0417,0.0388,0.0407,0.0396,0.0386,0.0493,0.0493,0.0494,0.0494,0,-0.0292,-0.0317,-0.0364,-0.0448,-0.0501,-0.0561,-0.0602,-0.0621,-0.0627,-0.0632,-0.0574,-0.0449,-0.0314,-0.0116,0.0073,0.0264,0.0348,0.0424,0.0423,0.0433,0.0398,0.0413,0.0401,0.0499,0.0498,0.0498,0.0497,0,-0.0311,-0.0345,-0.0404,-0.0472,-0.0549,-0.0608,-0.0633,-0.0636,-0.0645,-0.0625,-0.0603,-0.046,-0.0383,-0.0124,0.0056,0.0233,0.0295,0.0359,0.0362,0.0359,0.0293,0.0229,0.0313,0,0,0,0,0,-0.0327,-0.0356,-0.0425,-0.0503,-0.058,-0.0612,-0.0674,-0.0686,-0.069,-0.0644,-0.0616,-0.0475,-0.022,-0.0123,0.0066,0.0089,0.0317,0.0315,0.039,0.0526,0.0521,0.0467,0,0,0,0,0,0,-0.0337,-0.0393,-0.0417,-0.0508,-0.0555,-0.0633,-0.0665,-0.0675,-0.0636,-0.062,-0.0484,-0.0412,-0.0165,-0.0315,0.0077,0.0126,0.0203,0.0433,0.0437,0.053,0.0524,0.052,0.0463,0,0,0,0,0]}]]